Regional Weather Roundup
Issued by NWS

Home | Current Version | Previous Version | Graphics & Text | Print | Product List | Glossary On
Versions: 1 2 3 4 5 6 7 8 9 10 11 12 13 14 15 16 17 18 19 20 21 22 23 24 25 26 27 28 29 30 31 32 33 34 35 36 37 38 39 40 41 42 43 44 45 46 47 48 49 50
000
ASUS43 KLMK 240802
RWRKY
KENTUCKY REGIONAL WEATHER ROUNDUP
NATIONAL WEATHER SERVICE LOUISVILLE KY
400 AM EDT FRI MAR 24 2017

NOTE "FAIR" INDICATES FEW OR NO CLOUDS BELOW 12,000 FEET
WITH NO SIGNIFICANT WEATHER AND/OR OBSTRUCTIONS TO VISIBILITY.

KYZ001>023-026-027-061>063-070>075-240900-
WESTERN AND SOUTH CENTRAL KENTUCKY

CITY           SKY/WX    TMP DP  RH WIND       PRES   REMARKS
PADUCAH        CLEAR     65  50  58 S10       30.07S
HENDERSON      CLEAR     54  43  66 SE8       30.08F
OWENSBORO      CLEAR     57  46  66 S14       30.12F
HOPKINSVILLE   CLEAR     61  49  64 S12       30.14F
BOWLING GREEN  CLEAR     59  42  53 S16       30.19F
GLASGOW        NOT AVBL
$$

KYZ024-025-028>034-038-045-046-053-240900-
NORTH CENTRAL KENTUCKY

CITY           SKY/WX    TMP DP  RH WIND       PRES   REMARKS
LOUISVILLE/SDF PTCLDY    59  38  45 S13       30.15F
LOUISVILLE/LOU CLEAR     59  40  49 S13G21    30.16F
FORT KNOX      CLEAR     55  40  58 S14       30.14F
$$

KYZ035>037-039>044-047>052-055>060-089>105-240900-
NORTHEAST KENTUCKY

CITY           SKY/WX    TMP DP  RH WIND       PRES   REMARKS
LEXINGTON      CLEAR     55  38  52 S12       30.19R
COVINGTON      CLOUDY    53  38  56 S12       30.14F
FRANKFORT      CLEAR     57  39  51 S10       30.17S
$$

KYZ054-064>069-076>088-106>120-240900-
SOUTHEAST KENTUCKY

CITY           SKY/WX    TMP DP  RH WIND       PRES   REMARKS
JACKSON        CLEAR     54  33  45 VRB3      30.25F
LONDON         CLEAR     56  38  50 S6        30.26F
SOMERSET       CLEAR     54  36  50 S13       30.27S
MIDDLESBORO    CLEAR     55  37  51 SE6       30.32S
MONTICELLO     SUNNY     56  40  55 VRB7G17   30.26F
$$





USA.gov is the U.S. government's official web portal to all federal, state and local government web resources and services.